When you browse on this site, cookies collect data to enhance your experience and personalize the content and advertising you see.
Visit our Privacy Policy to learn more. By continuing to use the site, you agree to this use of cookies and data.
  • In Schweiz
  • Länderverzeichnis
  • Für 7 Tage
  • Wassertemperatur
  • Wetterkarte
  • Widgets
  • user-avatar
    Anmelden

    Stündliche Wetter Wagadugu

    Heute, 7 April, Dienstag

    Zeit Temperatur Niederschläge Wind Luftdruck Luftfeuchtigkeit
    00:00 +30°C° 0 mm 1 m/S 731 mmHg 13%
    01:00 +30°C° 0 mm 1 m/S 730 mmHg 15%
    02:00 +30°C° 0 mm 1 m/S 730 mmHg 17%
    03:00 +29°C° 0 mm 2 m/S 730 mmHg 19%
    04:00 +29°C° 0 mm 2 m/S 730 mmHg 28%
    05:00 +29°C° 0 mm 3 m/S 730 mmHg 37%
    06:00 +29°C° 0 mm 3 m/S 731 mmHg 49%
    07:00 +33°C° 0 mm 4 m/S 731 mmHg 45%
    08:00 +35°C° 0 mm 4 m/S 732 mmHg 41%
    09:00 +38°C° 0 mm 4 m/S 733 mmHg 37%
    10:00 +39°C° 0 mm 3 m/S 732 mmHg 30%
    11:00 +41°C° 0 mm 2 m/S 732 mmHg 22%
    12:00 +43°C° 0 mm 2 m/S 731 mmHg 15%
    13:00 +43°C° 0 mm 2 m/S 731 mmHg 13%
    14:00 +44°C° 0 mm 1 m/S 730 mmHg 11%
    15:00 +45°C° 0 mm 1 m/S 729 mmHg 9%
    16:00 +43°C° 0 mm 1 m/S 729 mmHg 10%
    17:00 +42°C° 0 mm 1 m/S 729 mmHg 11%
    18:00 +40°C° 0 mm 1 m/S 729 mmHg 11%
    19:00 +39°C° 0 mm 2 m/S 729 mmHg 11%
    20:00 +38°C° 0 mm 2 m/S 730 mmHg 10%
    21:00 +36°C° 0 mm 3 m/S 730 mmHg 9%
    22:00 +35°C° 0 mm 2 m/S 730 mmHg 10%
    23:00 +32°C° 0 mm 2 m/S 730 mmHg 10%

    Morgen, 8 April, Mittwoch

    Zeit Temperatur Niederschläge Wind Luftdruck Luftfeuchtigkeit
    00:00 +31°C° 0 mm 1 m/S 730 mmHg 10%
    01:00 +31°C° 0 mm 1 m/S 729 mmHg 11%
    02:00 +30°C° 0 mm 1 m/S 729 mmHg 11%
    03:00 +30°C° 0 mm 1 m/S 729 mmHg 11%
    04:00 +29°C° 0 mm 1 m/S 729 mmHg 17%
    05:00 +29°C° 0 mm 2 m/S 729 mmHg 22%
    06:00 +29°C° 0 mm 2 m/S 730 mmHg 27%
    07:00 +31°C° 0 mm 2 m/S 730 mmHg 24%
    08:00 +35°C° 0 mm 2 m/S 731 mmHg 20%
    09:00 +37°C° 0 mm 2 m/S 732 mmHg 16%
    10:00 +39°C° 0 mm 2 m/S 731 mmHg 13%
    11:00 +41°C° 0 mm 2 m/S 731 mmHg 9%
    12:00 +42°C° 0 mm 2 m/S 731 mmHg 5%
    13:00 +43°C° 0 mm 2 m/S 730 mmHg 5%
    14:00 +45°C° 0 mm 2 m/S 729 mmHg 4%
    15:00 +45°C° 0 mm 2 m/S 728 mmHg 4%
    16:00 +44°C° 0 mm 3 m/S 728 mmHg 4%
    17:00 +42°C° 0 mm 3 m/S 728 mmHg 5%
    18:00 +40°C° 0 mm 3 m/S 728 mmHg 5%
    19:00 +38°C° 0 mm 3 m/S 728 mmHg 6%
    20:00 +37°C° 0 mm 2 m/S 728 mmHg 6%
    21:00 +35°C° 0 mm 2 m/S 729 mmHg 7%
    22:00 +35°C° 0 mm 3 m/S 729 mmHg 9%
    23:00 +34°C° 0 mm 3 m/S 729 mmHg 11%

    übermorgen, 9 April, Donnerstag

    Zeit Temperatur Niederschläge Wind Luftdruck Luftfeuchtigkeit
    00:00 +34°C° 0 mm 3 m/S 729 mmHg 13%
    01:00 +33°C° 0 mm 3 m/S 729 mmHg 25%
    02:00 +30°C° 0 mm 3 m/S 729 mmHg 37%
    03:00 +29°C° 0 mm 3 m/S 729 mmHg 49%
    04:00 +29°C° 0 mm 3 m/S 729 mmHg 50%
    05:00 +29°C° 0 mm 2 m/S 730 mmHg 51%
    06:00 +29°C° 0 mm 2 m/S 730 mmHg 52%
    07:00 +31°C° 0 mm 3 m/S 731 mmHg 46%
    08:00 +34°C° 0 mm 4 m/S 731 mmHg 40%
    09:00 +36°C° 0 mm 5 m/S 732 mmHg 34%
    10:00 +39°C° 0 mm 5 m/S 731 mmHg 30%
    11:00 +41°C° 0 mm 5 m/S 731 mmHg 25%
    12:00 +43°C° 0 mm 4 m/S 731 mmHg 20%
    13:00 +43°C° 0 mm 4 m/S 730 mmHg 19%
    14:00 +43°C° 0 mm 4 m/S 729 mmHg 18%
    15:00 +44°C° 0 mm 4 m/S 729 mmHg 17%
    16:00 +40°C° 0.3 mm 6 m/S 729 mmHg 30%
    17:00 +35°C° 0.3 mm 8 m/S 728 mmHg 42%
    18:00 +31°C° 0.3 mm 9 m/S 728 mmHg 55%
    19:00 +33°C° 0.1 mm 8 m/S 729 mmHg 46%
    20:00 +34°C° 0.1 mm 6 m/S 730 mmHg 37%
    21:00 +36°C° 0.1 mm 5 m/S 730 mmHg 27%
    22:00 +35°C° 0 mm 4 m/S 730 mmHg 28%
    23:00 +34°C° 0 mm 3 m/S 730 mmHg 29%

    10 April, Freitag

    Zeit Temperatur Niederschläge Wind Luftdruck Luftfeuchtigkeit
    00:00 +32°C° 0 mm 2 m/S 730 mmHg 30%
    01:00 +34°C° 0 mm 2 m/S 729 mmHg 30%
    02:00 +34°C° 0 mm 2 m/S 729 mmHg 29%
    03:00 +34°C° 0 mm 2 m/S 729 mmHg 28%
    04:00 +32°C° 0 mm 2 m/S 729 mmHg 30%
    05:00 +31°C° 0 mm 2 m/S 730 mmHg 32%
    06:00 +30°C° 0 mm 2 m/S 730 mmHg 33%
    07:00 +31°C° 0 mm 3 m/S 731 mmHg 35%
    08:00 +33°C° 0 mm 4 m/S 731 mmHg 36%
    09:00 +34°C° 0 mm 4 m/S 732 mmHg 37%
    10:00 +35°C° 0 mm 4 m/S 732 mmHg 35%
    11:00 +37°C° 0 mm 5 m/S 732 mmHg 33%
    12:00 +39°C° 0 mm 5 m/S 731 mmHg 31%
    13:00 +41°C° 0 mm 4 m/S 730 mmHg 28%
    14:00 +41°C° 0 mm 2 m/S 730 mmHg 25%
    15:00 +42°C° 0 mm 1 m/S 729 mmHg 22%
    16:00 +39°C° 0.7 mm 3 m/S 729 mmHg 28%
    17:00 +37°C° 0.7 mm 5 m/S 729 mmHg 35%
    18:00 +34°C° 0.7 mm 7 m/S 729 mmHg 41%
    19:00 +34°C° 0.6 mm 5 m/S 730 mmHg 41%
    20:00 +34°C° 0.6 mm 4 m/S 730 mmHg 40%
    21:00 +34°C° 0.6 mm 3 m/S 731 mmHg 40%
    22:00 +33°C° 0 mm 4 m/S 731 mmHg 43%
    23:00 +32°C° 0 mm 5 m/S 731 mmHg 45%

    11 April, Samstag

    Zeit Temperatur Niederschläge Wind Luftdruck Luftfeuchtigkeit
    00:00 +32°C° 0 mm 6 m/S 731 mmHg 48%
    01:00 +32°C° 0 mm 5 m/S 731 mmHg 47%
    02:00 +32°C° 0 mm 5 m/S 731 mmHg 47%
    03:00 +32°C° 0 mm 4 m/S 730 mmHg 47%
    04:00 +30°C° 0 mm 4 m/S 730 mmHg 49%
    05:00 +30°C° 0 mm 3 m/S 730 mmHg 51%
    06:00 +29°C° 0 mm 2 m/S 730 mmHg 53%
    07:00 +33°C° 0 mm 3 m/S 731 mmHg 46%
    08:00 +35°C° 0 mm 4 m/S 731 mmHg 39%
    09:00 +38°C° 0 mm 4 m/S 732 mmHg 32%
    10:00 +40°C° 0 mm 4 m/S 732 mmHg 28%
    11:00 +41°C° 0 mm 4 m/S 731 mmHg 25%
    12:00 +42°C° 0 mm 4 m/S 731 mmHg 21%
    13:00 +42°C° 0 mm 4 m/S 730 mmHg 21%
    14:00 +42°C° 0 mm 4 m/S 729 mmHg 20%
    15:00 +43°C° 0 mm 4 m/S 729 mmHg 20%
    16:00 +42°C° 0 mm 5 m/S 729 mmHg 21%
    17:00 +41°C° 0 mm 5 m/S 729 mmHg 22%
    18:00 +40°C° 0 mm 5 m/S 729 mmHg 24%
    19:00 +39°C° 0 mm 5 m/S 730 mmHg 26%
    20:00 +36°C° 0 mm 5 m/S 730 mmHg 29%
    21:00 +35°C° 0 mm 4 m/S 731 mmHg 32%
    22:00 +34°C° 0 mm 4 m/S 731 mmHg 36%
    23:00 +34°C° 0 mm 3 m/S 731 mmHg 40%

    12 April, Sonntag

    Zeit Temperatur Niederschläge Wind Luftdruck Luftfeuchtigkeit
    00:00 +32°C° 0 mm 2 m/S 731 mmHg 45%
    01:00 +31°C° 0 mm 2 m/S 731 mmHg 46%
    02:00 +31°C° 0 mm 2 m/S 730 mmHg 47%
    03:00 +31°C° 0 mm 2 m/S 730 mmHg 49%
    04:00 +30°C° 0 mm 2 m/S 730 mmHg 49%
    05:00 +30°C° 0 mm 2 m/S 730 mmHg 50%
    06:00 +30°C° 0 mm 2 m/S 731 mmHg 50%
    07:00 +32°C° 0 mm 2 m/S 731 mmHg 43%
    08:00 +35°C° 0 mm 2 m/S 731 mmHg 37%
    09:00 +37°C° 0 mm 2 m/S 732 mmHg 30%
    10:00 +39°C° 0 mm 1 m/S 732 mmHg 26%
    11:00 +41°C° 0 mm 1 m/S 731 mmHg 22%
    12:00 +43°C° 0 mm 1 m/S 731 mmHg 18%
    13:00 +43°C° 0 mm 1 m/S 730 mmHg 17%
    14:00 +43°C° 0 mm 2 m/S 729 mmHg 16%
    15:00 +44°C° 0 mm 3 m/S 728 mmHg 16%
    16:00 +43°C° 0 mm 3 m/S 728 mmHg 16%
    17:00 +43°C° 0 mm 3 m/S 728 mmHg 17%
    18:00 +42°C° 0 mm 3 m/S 728 mmHg 18%
    19:00 +40°C° 0 mm 3 m/S 729 mmHg 20%
    20:00 +39°C° 0 mm 3 m/S 729 mmHg 22%
    21:00 +38°C° 0 mm 3 m/S 729 mmHg 23%
    22:00 +37°C° 0 mm 3 m/S 729 mmHg 26%
    23:00 +37°C° 0 mm 3 m/S 730 mmHg 28%
    Mehr zeigen